Regional Weather Roundup
Issued by NWS

Home | Current Version | Previous Version | Text Only | Print | Product List | Glossary Off
Versions: 1 2 3 4 5 6 7 8 9 10 11 12 13 14 15 16 17 18 19 20 21 22 23 24 25 26 27 28 29 30 31 32 33 34 35 36 37 38 39 40 41 42 43 44 45 46 47 48 49 50

193
ASUS43 KDMX 092106
RWRIA

WEATHER ROUNDUP FOR IOWA
NATIONAL WEATHER SERVICE DES MOINES IA
300 PM CST FRI DEC 09 2016

NOTE: "FAIR" INDICATES FEW OR NO CLOUDS BELOW 12,000 FEET WITH NO
SIGNIFICANT WEATHER AND/OR OBSTRUCTIONS TO VISIBILITY.

* - THESE STATIONS ARE NOT NWS STATIONS...THUS NOT UNDER NWS
QUALITY CONTROL.  THEY ALSO DO NOT REPORT WEATHER SUCH
AS PRECIPITATION OR FOG.

IAZ001>003-012>014-020>022-031>034-043>046-092200-
   NORTHWEST IOWA

CITY           SKY/WX    TMP DP  RH WIND       PRES   REMARKS
CARROLL *      CLOUDY    21   9  58 W7        30.52S WCI  13
CHEROKEE *     CLOUDY    18   8  65 SW5       30.52S WCI  11
DENISON *      PTSUNNY   19  10  68 CALM      30.50S
LE MARS *      CLOUDY    18   9  68 CALM      30.52S
ORANGE CITY *  CLOUDY    16   9  73 CALM      30.49S
SHELDON *      CLOUDY    16   7  67 W7        30.48S WCI   6
SIOUX CITY     CLOUDY    19   7  59 CALM      30.53F
SPENCER        CLOUDY    18   7  62 W12G18    30.50S WCI   5
STORM LAKE *   CLOUDY    18   9  68 W8        30.49S WCI   7
$$

IAZ055>058-069>071-079>083-090>094-092200-
   SOUTHWEST IOWA

CITY           SKY/WX    TMP DP  RH WIND       PRES   REMARKS
ATLANTIC *     CLOUDY    21  10  63 SW5       30.53S WCI  15
AUDUBON *      CLOUDY    21   9  58 W3        30.52S
CLARINDA *     CLOUDY    23  14  68 CALM      30.56S
COUNCIL BLFS * MOSUNNY   19  10  68 CALM      30.51F
CRESTON *      CLOUDY    21  10  63 W6        30.53S WCI  14
HARLAN  *      CLOUDY    19  10  68 CALM      30.56S
LAMONI         CLOUDY    24   8  50 W7        30.53R WCI  16
RED OAK *      CLOUDY    21  12  68 CALM      30.54F
SHENANDOAH *   CLOUDY    23  12  63 SE6       30.54F WCI  16
$$

IAZ047>049-059>061-072>074-084-092200-
   CENTRAL IOWA

CITY           SKY/WX    TMP DP  RH WIND       PRES   REMARKS
AMES           SUNNY     22  11  62 W8        30.53F WCI  12
ANKENY *       SUNNY     23   9  54 W9        30.56R WCI  13
BOONE *        PTSUNNY   21   9  58 W8        30.51S WCI  12
CHARITON *     CLOUDY    23  10  58 W6        30.53S WCI  16
DES MOINES     CLOUDY    23   9  55 W8        30.55R WCI  14
GRINNELL*      SUNNY     21  11  64 W5        30.54S WCI  15
KNOXVILLE *    CLOUDY    21   9  58 W6        30.54R WCI  14
MARSHALLTOWN   MOSUNNY   21  11  65 W7        30.53S WCI  12
NEWTON *       MOSUNNY   23   9  54 W9        30.53S WCI  13
PELLA *        MOSUNNY   22  11  63 W7        30.56R WCI  14
$$

IAZ004>006-015-016-023>025-035-036-092200-
   NORTH CENTRAL IOWA

CITY           SKY/WX    TMP DP  RH WIND       PRES   REMARKS
ALGONA *       MOSUNNY   19  10  68 VRB5      30.50S WCI  13
CLARION *      SUNNY     21  10  63 W8        30.52R WCI  12
ESTHERVILLE    CLOUDY    17   8  67 W8        30.49S WCI   7
FORT DODGE *   CLOUDY    21   9  58 W6        30.53R WCI  14
MASON CITY     PTSUNNY   20   9  62 W7        30.51S WCI  11
FOREST CITY *    N/A     23  12  63 NW8       30.50S WCI  14
WEBSTER CITY * SUNNY     21  10  63 VRB5      30.50S WCI  15
IOWA FALLS *   PTSUNNY   23  14  69 W7        30.52S WCI  14
$$

IAZ007>011-017>019-026>030-037>042-050>054-066-092200-
   NORTHEAST IOWA

CITY           SKY/WX    TMP DP  RH WIND       PRES   REMARKS
CEDAR RAPIDS   MOSUNNY   19  13  77 NW7       30.53S WCI  10
CHARLES CITY * CLOUDY    19  12  73 W6        30.52R WCI  11
CLINTON *      MOSUNNY   23  15  71 W9        30.54S WCI  13
DECORAH *      SUNNY     18  10  73 W3        30.48F
DUBUQUE        SUNNY     18  12  77 W9        30.51R WCI   7
MONTICELLO *   SUNNY     21  14  73 W7        30.53S WCI  13
OELWEIN *      SUNNY     18  12  79 W6        30.52S WCI   9
WATERLOO       PTSUNNY   21  12  68 NW5       30.53S WCI  15
$$

IAZ064-065-067-068-078-092200-
   EAST CENTRAL IOWA

CITY           SKY/WX    TMP DP  RH WIND       PRES   REMARKS
DAVENPORT      PTSUNNY   23  13  65 W13       30.54S WCI  11
IOWA CITY      CLOUDY    22  12  65 NW6       30.56F WCI  14
MUSCATINE *    PTSUNNY   23  12  63 NW7       30.57S WCI  15
QUAD CITIES    PTSUNNY   24  13  62 W8        30.55S WCI  15
$$

IAZ062-063-075>077-085>089-095>099-092200-
   SOUTHEAST IOWA

CITY           SKY/WX    TMP DP  RH WIND       PRES   REMARKS
BURLINGTON     CLOUDY    23  12  62 VRB5      30.55S WCI  17
FAIRFIELD *    PTSUNNY   21  10  63 W6        30.55S WCI  14
FORT MADISON * CLOUDY    21  12  68 NW6       30.56S WCI  14
KEOKUK *       CLOUDY    23  14  68 CALM      30.56S
OSKALOOSA *      N/A     21  11  66 W6        30.55S WCI  13
CENTERVILLE *  PTSUNNY   25   9  50 CALM      30.55S
OTTUMWA        CLOUDY    22   9  57 NW6       30.55S WCI  14
WASHINGTON *   MOSUNNY   23  12  63 W8        30.56S WCI  14
$$

ABBREVIATIONS USED IN REMARKS
   TC - TEMPERATURES IN CELSIUS
  WCI - WIND CHILL INDEX
   HX - HEAT INDEX
  VSB - VISIBILITY
$$





USA.gov is the U.S. government's official web portal to all federal, state and local government web resources and services.